This is the latest recevied weather packets stored in our database for station/object KD9IXX-13. If no packets are shown the sender has not sent any weather packets the latest 10 day(s).
| Time | Temp. | Humidity | Pressure | Rain* | Wind** | Luminosity | Snow |
|---|---|---|---|---|---|---|---|
| 1778010302 | 12.22° C | 46% | 1010.7 hPa | 0 mm | - | 142 W/m² | - |
| 1778010002 | 12.78° C | 45% | 1011 hPa | 0 mm | - | 145 W/m² | - |
| 1778009702 | 12.78° C | 47% | 1011 hPa | 0 mm | - | 138 W/m² | - |
| 1778009402 | 12.78° C | 47% | 1011.1 hPa | 0 mm | - | 141 W/m² | - |
| 1778009102 | 12.78° C | 45% | 1011.2 hPa | 0 mm | - | 143 W/m² | - |
| 1778008802 | 12.78° C | 46% | 1011 hPa | 0 mm | - | 149 W/m² | - |
| 1778008502 | 12.78° C | 49% | 1011 hPa | 0 mm | - | 168 W/m² | - |
| 1778008201 | 12.78° C | 48% | 1011.1 hPa | 0 mm | - | 193 W/m² | - |
| 1778007902 | 12.78° C | 48% | 1011.1 hPa | 0 mm | - | 197 W/m² | - |
| 1778007602 | 12.78° C | 56% | 1011.2 hPa | 0 mm | - | 191 W/m² | - |
| 1778007302 | 12.78° C | 54% | 1011.2 hPa | 0 mm | - | 206 W/m² | - |
| 1778007002 | 12.78° C | 53% | 1011.2 hPa | 0 mm | - | 228 W/m² | - |
| 1778006702 | 12.78° C | 52% | 1011.4 hPa | 0 mm | - | 215 W/m² | - |
| 1778006402 | 12.78° C | 55% | 1011.3 hPa | 0 mm | - | 235 W/m² | - |
| 1778006102 | 12.22° C | 51% | 1011.4 hPa | 0 mm | - | 218 W/m² | - |
| 1778005802 | 12.78° C | 53% | 1011.1 hPa | 0 mm | - | 259 W/m² | - |
| 1778005502 | 12.78° C | 55% | 1011.4 hPa | 0 mm | - | 264 W/m² | - |
| 1778005202 | 12.22° C | 56% | 1011.2 hPa | 0 mm | - | 246 W/m² | - |
| 1778004902 | 12.22° C | 59% | 1011.5 hPa | 0 mm | - | 229 W/m² | - |
| 1778004602 | 12.22° C | 60% | 1011.1 hPa | 0 mm | - | 244 W/m² | - |
| 1778004302 | 12.22° C | 58% | 1011.2 hPa | 0 mm | - | 235 W/m² | - |
| 1778004003 | 12.78° C | 59% | 1011.2 hPa | 0 mm | - | 255 W/m² | - |
| 1778003702 | 12.22° C | 57% | 1011.4 hPa | 0 mm | - | 282 W/m² | - |
| 1778003402 | 12.22° C | 58% | 1011.1 hPa | 0 mm | - | 237 W/m² | - |
| 1778003102 | 12.22° C | 58% | 1011.2 hPa | 0 mm | - | 257 W/m² | - |
* Rain latest hour (hover to see other rain measurements)
** Current wind speed in m/s (hover to see current wind gust speed)